Location: ??
(35.5052°N, 139.7262°E)
Time: 18:26:56
(UTC+00:00)

Cosmos 1943 - Pass Details

Date: 20 June 2021
Orbit: 831 x 852 km, 71.0° (Epoch: 29 July)

Event Time Altitude Azimuth Distance (km) Brightness Sun altitude
Exits shadow 15:08:12 51° 61° (ENE) 1,042 3.7 -30.8°
Drops below altitude 10° 15:12:39 10° 29° (NNE) 2,456 6.4 -30.6°
Sets 15:15:08 0° 26° (NNE) 3,397 7.4 -30.6°
